Terug naar catalogus

DELTA 1 DEB

ActiefSSO
NORAD 42650·DEBRIS·🇺🇸 United States

Gelanceerd Jun 12, 1975 vanaf Vandenberg Space Force Base

Loading…

Volgende Passages (komende 24 uur)

TLE

VersSource: Space-Track

Epoch: Sep 14, 2026, 13:06 UTC

1 42650U 75052MK  26257.54619864  .00000407  00000-0  65129-3 0  9998
2 42650  99.7856  15.1210 0232355 159.6119 201.4477 13.44858955626983

Volg DELTA 1 DEB in realtime met AllMySat

Download on the App Store